Вернуться в каталог

YAOGAN-30 V

АктивенВоенныеVLEO
NORAD 46808·PAYLOAD·🇨🇳 China

Запущен Oct 26, 2020 с Xichang Satellite Launch Center

Loading…

Ближайшие Пролёты (ближайшие 24 часа)

TLE

СвежийSource: Space-Track

Эпоха: Sep 14, 2026, 23:23 UTC

1 46808U 20076B   26257.97449574  .00002104  00000-0  15532-3 0  9998
2 46808  34.9940 263.5879 0000415  21.9369 338.1358 15.03014759321740

Отслеживайте YAOGAN-30 V в реальном времени с AllMySat

Download on the App Store